Location: Newark
(46.9000°N, 28.3500°E)
Time: 12:25:07
(UTC+00:00)

Explorer 7 - Pass Details

Date: 30 August 2019
Orbit: 485 x 680 km, 50.3° (Epoch: 22 October)

Event Time Altitude Azimuth Distance (km) Brightness Sun altitude
Rises 06:48:42 0° 265° (W) 3,027 10.2 33.5°
Reaches altitude 10° 06:51:07 10° 269° (W) 2,104 9.4 33.9°
Maximum altitude 06:55:57 62° 350° (N) 742 7.8 34.6°
Drops below altitude 10° 07:00:36 10° 71° (ENE) 2,025 10.4 35.3°
Sets 07:02:54 0° 75° (ENE) 2,903 11.1 35.6°
